Location: *
(55.5817°S, 142.4781°W)
Time: 07:09:45
(UTC+00:00)

Cosmos 2369 Rocket - Pass Details

Date: 29 April 2025
Orbit: 826 x 853 km, 71.0° (Epoch: 23 May)

Event Time Altitude Azimuth Distance (km) Brightness Sun altitude
Exits shadow 15:47:04 - 224° (SW) 2,798 4.4 -9.3°
Reaches altitude 10° 15:48:21 10° 215° (SW) 2,476 4.2 -9.1°
Maximum altitude 15:52:01 17° 175° (S) 2,010 4.1 -8.6°
Drops below altitude 10° 15:55:40 10° 134° (SE) 2,468 5.1 -8.1°
Sets 15:59:02 0° 114° (ESE) 3,399 6.3 -7.7°
